[[{"header":{"parameterUnit":"m.s-1","parameterCategory":1,"la1":30.2991,"la2":30.254,"lo1":-89.0895,"lo2":-89.0444,"dy":0.0017,"dx":0.0017,"nx":28,"ny":28,"refTime":"2025-09-02T21:00:00:Z","depth":0,"parameterNumber":2,"parameterNumberName":"U-component_of_WINDS"},"data":[0,0,0,0,0,0,0,0,0,0,0,0,0,0,0,0,0,0,0,0,0,0,0,0,0,0,0,0,0,0,0,0,0,0,0,0,0,0,0,0,0,0,0,0,0,0,0,0,0,0,0,0,0,0,0,0,0,0,-0.6866,-0.6866,0,-0.6872,-0.6872,-0.6872,-0.6854,-0.6853,-0.6853,-0.6852,-0.686,-0.686,-0.6861,0,0,0,0,0,0,0,0,0,0,0,0,0,-0.684,-0.6841,-0.6866,-0.6866,-0.6866,-0.6872,-0.6872,-0.6872,-0.6854,-0.6853,-0.6852,-0.6852,-0.6859,-0.686,-0.6861,0,0,0,0,0,0,0,0,0,0,0,0,0,-0.6849,-0.6841,-0.6866,-0.6858,-0.6857,-0.6872,-0.6872,-0.6872,-0.6854,-0.6853,-0.6852,-0.6852,-0.6859,-0.686,-0.6861,-0.6885,0,0,-0.6864,-0.6865,0,0,0,0,0,0,0,0,-0.6849,-0.685,-0.6859,-0.6858,-0.6858,-0.6861,-0.6866,-0.6877,-0.6854,-0.6855,-0.6852,-0.6851,-0.6861,-0.6862,-0.6865,-0.6885,-0.6886,-0.6865,-0.6865,-0.6866,-0.6866,0,0,0,0,0,0,0,-0.6848,-0.685,-0.6868,-0.6859,-0.6858,-0.6854,-0.6855,-0.6868,-0.6863,-0.6855,-0.6854,-0.6855,-0.686,-0.6864,-0.6865,-0.6886,-0.6865,-0.6866,-0.6866,-0.6867,-0.6927,-0.6928,0,0,0,0,0,0,-0.6849,-0.685,-0.6868,-0.6869,-0.6851,-0.6855,-0.6856,-0.6861,-0.6863,-0.6862,-0.6855,-0.6854,-0.6862,-0.6864,-0.6865,-0.6894,-0.6866,-0.6867,-0.6867,-0.6926,-0.6927,-0.6928,0,0,0,0,0,0,-0.6848,-0.685,-0.6868,-0.6859,-0.6861,-0.6857,-0.6863,-0.6862,-0.6865,-0.6863,-0.6862,-0.686,-0.6862,-0.6864,-0.688,-0.6894,-0.6867,-0.6868,-0.6925,-0.6926,-0.6928,-0.6951,0,0,0,0,0,0,-0.6847,-0.685,-0.6859,-0.6859,-0.6861,-0.6883,-0.6863,-0.6862,-0.6867,-0.6865,-0.6867,-0.6866,-0.6861,-0.6879,-0.6881,-0.6895,-0.6869,-0.6924,-0.6926,-0.6927,-0.6949,-0.6953,-0.6956,0,0,0,0,0,-0.6847,-0.6865,-0.6859,-0.6862,-0.6872,-0.6883,-0.6885,-0.6878,-0.6868,-0.6877,-0.6876,-0.6866,-0.6892,-0.6881,-0.6883,-0.6897,-0.6923,-0.6925,-0.6927,-0.6947,-0.6952,-0.6956,0,0,0,0,0,0,-0.6867,-0.6865,-0.6859,-0.6878,-0.6881,-0.688,-0.6891,-0.6884,-0.689,-0.6888,-0.688,-0.6881,-0.6899,-0.69,-0.6887,-0.6921,-0.6906,-0.6908,-0.692,-0.6924,-0.6928,-0.6928,-0.687,0,0,0,0,0,-0.6874,-0.6883,-0.6881,-0.6898,-0.69,-0.6895,-0.69,-0.6895,-0.6898,-0.69,-0.6899,-0.6903,-0.6912,-0.6918,-0.6926,-0.6949,-0.6949,-0.696,-0.6963,-0.6966,-0.6969,-0.6982,-0.6987,-0.6935,-0.6935,-0.6935,0,0,-0.6888,-0.6888,-0.6894,-0.6902,-0.6904,-0.6914,-0.6897,-0.6908,-0.6916,-0.6901,-0.6917,-0.6917,-0.6921,-0.6941,-0.695,-0.6942,-0.6983,-0.6969,-0.6972,-0.6973,-0.6985,-0.6989,-0.6994,-0.6937,-0.6936,-0.6936,0,0,-0.6919,-0.692,-0.6934,-0.6936,-0.6939,-0.6936,-0.694,-0.694,-0.694,-0.6956,-0.6945,-0.6955,-0.697,-0.6973,-0.6977,-0.701,-0.7002,-0.7013,-0.7032,-0.7045,-0.7049,-0.7052,-0.7065,-0.7069,-0.7015,-0.7015,-0.7015,0,-0.6936,-0.6951,-0.6943,-0.6955,-0.696,-0.6946,-0.6962,-0.6964,-0.697,-0.6973,-0.6965,-0.6984,-0.6986,-0.7006,-0.7015,-0.7018,-0.7022,-0.7013,-0.7049,-0.7052,-0.7056,-0.7067,-0.7072,-0.7017,-0.7016,-0.7016,-0.7016,0,-0.6973,-0.6983,-0.6995,-0.7,-0.7005,-0.7019,-0.7014,-0.7021,-0.7015,-0.7013,-0.703,-0.7031,-0.704,-0.7044,-0.7039,-0.7064,-0.706,-0.705,-0.7035,-0.7062,-0.7073,-0.7077,-0.7019,-0.7018,-0.7018,-0.7017,0,0,-0.7017,-0.7018,-0.7023,-0.7025,-0.7027,-0.7036,-0.7049,-0.7057,-0.7063,-0.7067,-0.7079,-0.7093,-0.7084,-0.7088,-0.7083,-0.7094,-0.7121,-0.7083,-0.7083,-0.7091,-0.715,-0.7158,-0.7164,-0.7115,-0.7116,-0.7117,-0.715,0,-0.7049,-0.7071,-0.7065,-0.7088,-0.7098,-0.7085,-0.7097,-0.71,-0.7099,-0.7108,-0.7106,-0.7116,-0.7103,-0.7106,-0.7116,-0.7115,-0.7133,-0.7113,-0.7127,-0.7128,-0.7127,-0.7169,-0.7178,-0.7209,-0.7155,-0.7155,-0.7156,0,-0.7088,-0.7094,-0.7118,-0.7119,-0.7123,-0.7134,-0.7141,-0.7149,-0.7152,-0.7151,-0.7156,-0.7148,-0.7162,-0.7147,-0.7166,-0.7153,-0.7158,-0.7159,-0.716,-0.7161,-0.7144,-0.7173,-0.7219,-0.7224,-0.7162,-0.7162,-0.7161,0,-0.712,-0.7133,-0.7149,-0.7152,-0.7153,-0.7161,-0.7162,-0.7165,-0.717,-0.7176,-0.718,-0.7188,-0.7193,-0.7199,-0.7195,-0.7183,-0.7216,-0.7199,-0.7215,-0.7216,-0.7223,-0.7223,-0.7272,-0.7226,-0.7225,-0.7225,-0.7225,0,-0.7156,-0.7171,-0.7164,-0.7174,-0.7191,-0.7183,-0.7201,-0.72,-0.7203,-0.7213,-0.7203,-0.7213,-0.7206,-0.7216,-0.7212,-0.723,-0.7232,-0.7231,-0.723,-0.7233,-0.7233,-0.7237,-0.7235,-0.7227,-0.7226,-0.7226,-0.7226,0,-0.7194,-0.7189,-0.7207,-0.7206,-0.7207,-0.7219,-0.722,-0.7229,-0.7227,-0.724,-0.7243,-0.724,-0.7251,-0.7247,-0.7259,-0.7256,-0.7279,-0.7275,-0.7278,-0.7277,-0.7294,-0.7293,-0.7347,-0.7355,-0.7303,-0.7303,-0.7304,0,-0.7218,-0.723,-0.7231,-0.7237,-0.7238,-0.7248,-0.7253,-0.7246,-0.7253,-0.7257,-0.7267,-0.7277,-0.7284,-0.7303,-0.7302,-0.7311,-0.7307,-0.7326,-0.7309,-0.7311,-0.7309,-0.7309,-0.731,-0.733,-0.733,-0.7331,-0.7331,0,-0.7261,-0.7258,-0.7266,-0.7274,-0.728,-0.7286,-0.729,-0.7296,-0.7289,-0.7297,-0.7307,-0.7313,-0.7325,-0.7336,-0.7344,-0.7346,-0.7338,-0.7337,-0.7341,-0.7344,-0.7346,-0.7346,-0.7288,-0.7336,-0.7335,-0.7335,-0.7335,-0.7334,-0.7294,-0.7304,-0.7306,-0.7315,-0.7318,-0.7323,-0.7332,-0.7331,-0.7339,-0.7348,-0.7344,-0.7357,-0.736,-0.737,-0.7373,-0.7384,-0.7377,-0.7383,-0.7385,-0.7387,-0.7389,-0.7343,-0.7385,-0.7385,-0.7385,-0.7385,-0.7385,0,-0.7338,-0.7338,-0.7347,-0.7354,-0.7361,-0.7352,-0.7357,-0.7364,-0.7375,-0.7379,-0.7386,-0.7399,-0.7409,-0.7409,-0.7419,-0.7427,-0.7424,-0.743,-0.743,-0.7431,-0.7394,-0.739,-0.7433,-0.7433,-0.7433,-0.7433,-0.7433,-0.7433,-0.7361,-0.7378,-0.7375,-0.7393,-0.7394,-0.7406,-0.741,-0.7414,-0.7417,-0.7432,-0.744,-0.744,-0.7442,-0.7452,-0.7461,-0.746,-0.7465,-0.7473,-0.7471,-0.7438,-0.7433,-0.7428,-0.7424,-0.7473,-0.7473,-0.7507,-0.7507,-0.7507]},{"header":{"parameterUnit":"m.s-1","parameterCategory":1,"la1":30.2991,"la2":30.254,"lo1":-89.0895,"lo2":-89.0444,"dy":0.0017,"dx":0.0017,"nx":28,"ny":28,"refTime":"2025-09-02T21:00:00:Z","depth":0,"parameterNumber":3,"parameterNumberName":"V-component_of_WINDS"},"data":[0,0,0,0,0,0,0,0,0,0,0,0,0,0,0,0,0,0,0,0,0,0,0,0,0,0,0,0,0,0,0,0,0,0,0,0,0,0,0,0,0,0,0,0,0,0,0,0,0,0,0,0,0,0,0,0,0,0,3.8,3.7999,0,3.7974,3.7973,3.7973,3.794,3.794,3.7939,3.7939,3.7911,3.7911,3.791,0,0,0,0,0,0,0,0,0,0,0,0,0,3.802,3.802,3.8,3.7999,3.7999,3.7974,3.7973,3.7973,3.794,3.794,3.7939,3.7939,3.7911,3.7911,3.791,0,0,0,0,0,0,0,0,0,0,0,0,0,3.8005,3.802,3.8,3.798,3.7978,3.7974,3.7973,3.7973,3.794,3.794,3.7939,3.7938,3.7911,3.7911,3.791,3.7924,0,0,3.7909,3.7909,0,0,0,0,0,0,0,0,3.8006,3.8004,3.7983,3.7981,3.7979,3.7959,3.797,3.7956,3.7941,3.7955,3.7939,3.7938,3.7928,3.7926,3.7923,3.7922,3.7921,3.7909,3.7909,3.7909,3.7909,0,0,0,0,0,0,0,3.8007,3.8005,3.7989,3.7983,3.798,3.7972,3.7969,3.7968,3.7946,3.7953,3.7951,3.7948,3.7926,3.7923,3.7922,3.7921,3.7909,3.7909,3.7909,3.7908,3.7929,3.793,0,0,0,0,0,0,3.8011,3.8006,3.799,3.7988,3.7991,3.7972,3.7969,3.7966,3.7946,3.7942,3.7949,3.7947,3.7924,3.7922,3.7921,3.7934,3.7909,3.7908,3.7908,3.7928,3.7929,3.793,0,0,0,0,0,0,3.8011,3.801,3.7991,3.7997,3.7994,3.7973,3.797,3.7966,3.7963,3.7942,3.7938,3.795,3.7923,3.7921,3.7923,3.7932,3.7908,3.7908,3.7927,3.7929,3.793,3.7961,0,0,0,0,0,0,3.8012,3.801,3.8015,3.7997,3.7993,3.7994,3.7971,3.7966,3.7963,3.796,3.7942,3.7938,3.7923,3.7924,3.7923,3.7931,3.7908,3.7926,3.7928,3.7929,3.7959,3.7963,3.7967,0,0,0,0,0,3.8013,3.8025,3.8016,3.8014,3.7999,3.7995,3.7993,3.7975,3.7963,3.7968,3.7955,3.7939,3.7932,3.7924,3.7923,3.7931,3.7926,3.7927,3.7929,3.7957,3.7962,3.7966,0,0,0,0,0,0,3.8044,3.8022,3.8011,3.8018,3.8009,3.7989,3.7995,3.7981,3.7974,3.7972,3.7949,3.7946,3.795,3.7941,3.7933,3.7943,3.7926,3.7928,3.7948,3.7953,3.7957,3.7958,3.7907,0,0,0,0,0,3.8052,3.8051,3.8031,3.8039,3.8035,3.8016,3.8013,3.8,3.7989,3.7985,3.7972,3.7962,3.7958,3.7955,3.795,3.7958,3.7953,3.7963,3.7967,3.797,3.7972,3.7974,3.7978,3.7936,3.7936,3.7936,0,0,3.8068,3.8055,3.8056,3.8045,3.8036,3.8035,3.8012,3.8012,3.8011,3.7985,3.7986,3.7976,3.7963,3.7968,3.797,3.7961,3.7983,3.7973,3.7975,3.7975,3.7977,3.7981,3.7984,3.7937,3.7937,3.7937,0,0,3.8095,3.8086,3.8091,3.8083,3.807,3.8058,3.8059,3.8042,3.8035,3.8035,3.8016,3.8014,3.8007,3.7998,3.7993,3.8018,3.8003,3.8017,3.8036,3.804,3.8043,3.8046,3.8054,3.8057,3.8019,3.8019,3.8019,0,3.8116,3.8113,3.8095,3.8096,3.8091,3.8069,3.8073,3.8066,3.8053,3.805,3.804,3.8031,3.8021,3.8023,3.8029,3.8026,3.8026,3.8018,3.8044,3.8047,3.8049,3.8056,3.8059,3.802,3.802,3.802,3.802,0,3.8139,3.8138,3.8143,3.8131,3.8127,3.813,3.8112,3.811,3.8098,3.8086,3.8087,3.8074,3.8066,3.8065,3.8053,3.8066,3.8061,3.8048,3.8031,3.8055,3.8061,3.8064,3.8023,3.8022,3.8022,3.8021,0,0,3.8184,3.8162,3.8164,3.8158,3.8143,3.8141,3.8143,3.8135,3.8134,3.8125,3.8126,3.812,3.8109,3.8103,3.809,3.8093,3.8112,3.8079,3.8079,3.8085,3.8124,3.8133,3.8136,3.8103,3.8103,3.8104,3.8125,0,3.8208,3.8209,3.8193,3.8199,3.8197,3.8176,3.8178,3.8168,3.8158,3.8154,3.8142,3.8139,3.8124,3.812,3.8122,3.8109,3.8119,3.8108,3.8102,3.8102,3.8104,3.814,3.8149,3.8169,3.8127,3.8128,3.8128,0,3.8235,3.8228,3.8234,3.8218,3.8217,3.8219,3.821,3.8207,3.8196,3.8188,3.8182,3.8167,3.8168,3.8152,3.8152,3.8144,3.8141,3.8134,3.8135,3.8132,3.8115,3.8137,3.8175,3.8178,3.8132,3.8132,3.8131,0,3.8265,3.8258,3.826,3.8256,3.8238,3.824,3.8232,3.8221,3.8217,3.821,3.8207,3.82,3.8195,3.819,3.8173,3.8164,3.8174,3.8158,3.8166,3.8167,3.8168,3.8168,3.8206,3.8169,3.8169,3.8169,3.8169,0,3.8292,3.8296,3.8274,3.8275,3.8279,3.8261,3.8265,3.8256,3.8245,3.8244,3.8226,3.8225,3.8204,3.8201,3.8188,3.8189,3.8187,3.818,3.8176,3.8181,3.8182,3.8177,3.8175,3.8169,3.8169,3.8169,3.8169,0,3.8327,3.8312,3.8313,3.8296,3.8292,3.8296,3.8281,3.8281,3.827,3.8269,3.8267,3.8249,3.8244,3.8228,3.8219,3.821,3.8215,3.8208,3.8218,3.8216,3.8225,3.8224,3.826,3.8263,3.8226,3.8226,3.8226,0,3.8344,3.8347,3.8331,3.8329,3.8322,3.8319,3.8316,3.8298,3.8295,3.8283,3.8284,3.8278,3.8272,3.8265,3.8251,3.8244,3.8237,3.825,3.8235,3.824,3.8235,3.8235,3.8234,3.8252,3.8253,3.8253,3.8254,0,3.8376,3.8369,3.8364,3.8357,3.8354,3.8347,3.834,3.8339,3.832,3.8317,3.8312,3.8307,3.8299,3.8292,3.8283,3.8275,3.826,3.8259,3.826,3.8264,3.8269,3.8265,3.8225,3.8257,3.8257,3.8257,3.8256,3.8256,3.8401,3.8402,3.8391,3.8387,3.838,3.8373,3.8373,3.8362,3.8357,3.8349,3.8339,3.8335,3.8324,3.831,3.8303,3.8299,3.8292,3.8294,3.8294,3.8295,3.8297,3.8271,3.8298,3.8298,3.8298,3.8297,3.8297,0,3.8431,3.8423,3.842,3.841,3.8407,3.8395,3.8386,3.8384,3.8381,3.8372,3.8367,3.8361,3.8355,3.834,3.8333,3.8333,3.8326,3.8331,3.833,3.8328,3.8304,3.8303,3.8337,3.8337,3.8337,3.8337,3.8337,3.8337,3.8446,3.8448,3.8439,3.8437,3.8428,3.8425,3.8421,3.8415,3.8407,3.8402,3.8397,3.8388,3.8377,3.8368,3.8362,3.8358,3.8355,3.8363,3.8356,3.8334,3.833,3.8326,3.8325,3.8363,3.8363,3.838,3.838,3.8381]}]]